Time,TemperatureF,DewpointF,PressureIn,WindDirection,WindDirectionDegrees,WindSpeedMPH,WindSpeedGustMPH,Humidity,HourlyPrecipIn,Conditions,Clouds,dailyrainin,SoftwareType,DateUTC
2013-01-01 00:03:00,30.0,26.0,-100.00,East,100,0.0,2.0,85,-99.99,,,-99.99,,2013-01-01 05:03:00,
2013-01-01 00:12:00,30.0,26.0,-100.00,WNW,295,1.0,3.0,85,-99.99,,,-99.99,,2013-01-01 05:12:00,
2013-01-01 00:22:00,30.0,26.0,-100.00,WSW,250,1.0,5.0,85,-99.99,,,-99.99,,2013-01-01 05:22:00,
2013-01-01 00:33:00,30.0,27.0,-100.00,WSW,250,1.0,3.0,86,-99.99,,,-99.99,,2013-01-01 05:33:00,
2013-01-01 00:42:00,30.0,27.0,-100.00,West,260,1.0,5.0,86,-99.99,,,-99.99,,2013-01-01 05:42:00,
2013-01-01 00:52:00,31.0,27.0,-100.00,East,85,1.0,5.0,85,-99.99,,,-99.99,,2013-01-01 05:52:00,
2013-01-01 01:02:00,31.0,26.0,-100.00,ESE,115,0.0,5.0,84,-99.99,,,-99.99,,2013-01-01 06:02:00,
2013-01-01 01:12:00,31.0,26.0,-100.00,NE,45,1.0,7.0,84,-99.99,,,-99.99,,2013-01-01 06:12:00,
2013-01-01 01:22:00,31.0,26.0,-100.00,West,280,1.0,5.0,83,-99.99,,,-99.99,,2013-01-01 06:22:00,
2013-01-01 01:32:00,31.0,26.0,-100.00,SW,225,1.0,5.0,83,-99.99,,,-99.99,,2013-01-01 06:32:00,
2013-01-01 01:42:00,31.0,26.0,-100.00,NNE,30,1.0,3.0,83,-99.99,,,-99.99,,2013-01-01 06:42:00,
2013-01-01 01:52:00,31.0,26.0,-100.00,East,90,1.0,3.0,83,-99.99,,,-99.99,,2013-01-01 06:52:00,
2013-01-01 02:02:00,31.0,26.0,-100.00,SE,125,1.0,3.0,83,-99.99,,,-99.99,,2013-01-01 07:02:00,
2013-01-01 02:12:00,31.0,26.0,-100.00,SSW,205,1.0,5.0,83,-99.99,,,-99.99,,2013-01-01 07:12:00,
2013-01-01 02:22:00,31.0,26.0,-100.00,SW,235,1.0,3.0,82,-99.99,,,-99.99,,2013-01-01 07:22:00,
2013-01-01 02:32:00,31.0,26.0,-100.00,NW,310,0.0,5.0,82,-99.99,,,-99.99,,2013-01-01 07:32:00,
2013-01-01 02:42:00,31.0,26.0,-100.00,ENE,70,1.0,5.0,82,-99.99,,,-99.99,,2013-01-01 07:42:00,
2013-01-01 02:52:00,31.0,26.0,-100.00,ESE,115,1.0,5.0,82,-99.99,,,-99.99,,2013-01-01 07:52:00,
2013-01-01 03:02:00,32.0,26.0,-100.00,SSW,195,1.0,6.0,79,-99.99,,,-99.99,,2013-01-01 08:02:00,
2013-01-01 03:12:00,32.0,26.0,-100.00,NNE,25,1.0,6.0,79,-99.99,,,-99.99,,2013-01-01 08:12:00,
2013-01-01 03:22:00,32.0,26.0,-100.00,SW,225,1.0,5.0,79,-99.99,,,-99.99,,2013-01-01 08:22:00,
2013-01-01 03:32:00,31.0,26.0,-100.00,SSW,205,1.0,6.0,79,-99.99,,,-99.99,,2013-01-01 08:32:00,
2013-01-01 03:42:00,31.0,26.0,-100.00,East,85,1.0,6.0,80,-99.99,,,-99.99,,2013-01-01 08:42:00,
2013-01-01 03:53:00,31.0,26.0,-100.00,ENE,70,1.0,5.0,80,-99.99,,,-99.99,,2013-01-01 08:53:00,
2013-01-01 04:02:00,31.0,26.0,-100.00,East,80,1.0,6.0,81,-99.99,,,-99.99,,2013-01-01 09:02:00,
2013-01-01 04:12:00,31.0,26.0,-100.00,East,90,1.0,5.0,81,-99.99,,,-99.99,,2013-01-01 09:12:00,
2013-01-01 07:03:00,32.0,25.0,-100.00,North,350,2.0,6.0,76,-99.99,,,-99.99,,2013-01-01 12:03:00,
2013-01-01 07:12:00,32.0,25.0,-100.00,SW,235,1.0,6.0,76,-99.99,,,-99.99,,2013-01-01 12:12:00,
2013-01-01 07:22:00,32.0,25.0,-100.00,SSW,195,1.0,6.0,76,-99.99,,,-99.99,,2013-01-01 12:22:00,
2013-01-01 07:33:00,32.0,26.0,-100.00,SE,135,1.0,6.0,78,-99.99,,,-99.99,,2013-01-01 12:33:00,
2013-01-01 07:43:00,32.0,26.0,-100.00,SE,125,1.0,5.0,79,-99.99,,,-99.99,,2013-01-01 12:43:00,
2013-01-01 07:52:00,32.0,26.0,-100.00,WNW,295,1.0,5.0,80,-99.99,,,-99.99,,2013-01-01 12:52:00,
2013-01-01 08:03:00,32.0,26.0,-100.00,NNW,345,1.0,5.0,80,-99.99,,,-99.99,,2013-01-01 13:03:00,
2013-01-01 08:12:00,32.0,26.0,-100.00,ESE,105,1.0,6.0,78,-99.99,,,-99.99,,2013-01-01 13:12:00,
2013-01-01 08:22:00,33.0,26.0,-100.00,WSW,255,2.0,7.0,76,-99.99,,,-99.99,,2013-01-01 13:22:00,
2013-01-01 08:33:00,33.0,26.0,-100.00,SSE,150,2.0,7.0,76,-99.99,,,-99.99,,2013-01-01 13:33:00,
2013-01-01 08:43:00,33.0,26.0,-100.00,ESE,105,1.0,6.0,76,-99.99,,,-99.99,,2013-01-01 13:43:00,
2013-01-01 08:52:00,33.0,26.0,-100.00,NNE,30,2.0,8.0,75,-99.99,,,-99.99,,2013-01-01 13:52:00,
2013-01-01 09:03:00,33.0,26.0,-100.00,SW,215,1.0,9.0,75,-99.99,,,-99.99,,2013-01-01 14:03:00,
2013-01-01 09:12:00,33.0,26.0,-100.00,North,355,2.0,7.0,74,-99.99,,,-99.99,,2013-01-01 14:12:00,
2013-01-01 09:22:00,33.0,26.0,-100.00,ENE,65,1.0,7.0,74,-99.99,,,-99.99,,2013-01-01 14:22:00,
2013-01-01 09:32:00,34.0,26.0,-100.00,WSW,255,2.0,7.0,73,-99.99,,,-99.99,,2013-01-01 14:32:00,
2013-01-01 09:42:00,34.0,26.0,-100.00,NE,45,2.0,7.0,73,-99.99,,,-99.99,,2013-01-01 14:42:00,
2013-01-01 09:53:00,35.0,26.0,-100.00,NE,35,1.0,7.0,71,-99.99,,,-99.99,,2013-01-01 14:53:00,
2013-01-01 10:03:00,35.0,26.0,-100.00,North,350,2.0,6.0,71,-99.99,,,-99.99,,2013-01-01 15:03:00,
2013-01-01 10:12:00,36.0,27.0,-100.00,NW,310,2.0,8.0,69,-99.99,,,-99.99,,2013-01-01 15:12:00,
2013-01-01 10:22:00,36.0,26.0,-100.00,NW,305,2.0,7.0,65,-99.99,,,-99.99,,2013-01-01 15:22:00,
2013-01-01 10:33:00,36.0,25.0,-100.00,North,350,6.0,10.0,63,-99.99,,,-99.99,,2013-01-01 15:33:00,
2013-01-01 10:43:00,36.0,25.0,-100.00,NW,320,6.0,10.0,62,-99.99,,,-99.99,,2013-01-01 15:43:00,
2013-01-01 10:53:00,37.0,25.0,-100.00,North,5,3.0,14.0,62,-99.99,,,-99.99,,2013-01-01 15:53:00,
2013-01-01 11:02:00,37.0,23.0,-100.00,NNW,335,5.0,10.0,58,-99.99,,,-99.99,,2013-01-01 16:02:00,
2013-01-01 11:12:00,37.0,19.0,-100.00,North,350,7.0,17.0,47,-99.99,,,-99.99,,2013-01-01 16:12:00,
2013-01-01 11:22:00,37.0,19.0,-100.00,North,350,7.0,17.0,47,-99.99,,,-99.99,,2013-01-01 16:22:00,
2013-01-01 11:33:00,36.0,15.0,-100.00,NNW,340,5.0,14.0,41,-99.99,,,-99.99,,2013-01-01 16:33:00,
2013-01-01 11:43:00,36.0,13.0,-100.00,NNW,345,7.0,15.0,37,-99.99,,,-99.99,,2013-01-01 16:43:00,
2013-01-01 11:52:00,36.0,11.0,-100.00,NW,310,7.0,20.0,34,-99.99,,,-99.99,,2013-01-01 16:52:00,
2013-01-01 12:02:00,35.0,10.0,-100.00,North,350,9.0,22.0,34,-99.99,,,-99.99,,2013-01-01 17:02:00,
2013-01-01 12:12:00,35.0,11.0,-100.00,NNW,345,9.0,17.0,36,-99.99,,,-99.99,,2013-01-01 17:12:00,
2013-01-01 12:23:00,35.0,4.0,-100.00,NNW,330,9.0,17.0,27,-99.99,,,-99.99,,2013-01-01 17:23:00,
2013-01-01 12:33:00,35.0,7.0,-100.00,NNW,345,8.0,22.0,30,-99.99,,,-99.99,,2013-01-01 17:33:00,
2013-01-01 12:43:00,35.0,9.0,-100.00,North,350,9.0,18.0,33,-99.99,,,-99.99,,2013-01-01 17:43:00,
2013-01-01 12:53:00,35.0,6.0,-100.00,NW,315,5.0,24.0,29,-99.99,,,-99.99,,2013-01-01 17:53:00,
2013-01-01 13:03:00,35.0,9.0,-100.00,NNW,330,7.0,15.0,34,-99.99,,,-99.99,,2013-01-01 18:03:00,
2013-01-01 13:13:00,35.0,7.0,-100.00,NNW,335,7.0,17.0,30,-99.99,,,-99.99,,2013-01-01 18:13:00,
2013-01-01 13:52:00,35.0,5.0,-100.00,West,265,9.0,18.0,28,-99.99,,,-99.99,,2013-01-01 18:52:00,
2013-01-01 14:02:00,35.0,3.0,-100.00,NNW,345,9.0,20.0,26,-99.99,,,-99.99,,2013-01-01 19:02:00,
2013-01-01 15:02:00,35.0,4.0,-100.00,North,355,9.0,17.0,27,-99.99,,,-99.99,,2013-01-01 20:02:00,
2013-01-01 15:13:00,35.0,1.0,-100.00,North,350,9.0,28.0,23,-99.99,,,-99.99,,2013-01-01 20:13:00,
2013-01-01 15:23:00,34.0,1.0,-100.00,North,0,9.0,20.0,24,-99.99,,,-99.99,,2013-01-01 20:23:00,
2013-01-01 15:32:00,34.0,2.0,-100.00,North,355,9.0,20.0,26,-99.99,,,-99.99,,2013-01-01 20:32:00,
2013-01-01 15:42:00,33.0,3.0,-100.00,NNW,335,7.0,16.0,27,-99.99,,,-99.99,,2013-01-01 20:42:00,
2013-01-01 15:52:00,33.0,1.0,-100.00,North,350,9.0,18.0,25,-99.99,,,-99.99,,2013-01-01 20:52:00,
2013-01-01 16:03:00,33.0,3.0,-100.00,NNW,345,6.0,14.0,28,-99.99,,,-99.99,,2013-01-01 21:03:00,
2013-01-01 16:13:00,33.0,0.0,-100.00,NNW,340,8.0,15.0,24,-99.99,,,-99.99,,2013-01-01 21:13:00,
2013-01-01 16:22:00,32.0,9.0,-100.00,NNW,340,7.0,14.0,37,-99.99,,,-99.99,,2013-01-01 21:22:00,
2013-01-01 16:33:00,32.0,2.0,-100.00,North,350,7.0,15.0,27,-99.99,,,-99.99,,2013-01-01 21:33:00,
2013-01-01 16:42:00,31.0,2.0,-100.00,North,355,6.0,13.0,28,-99.99,,,-99.99,,2013-01-01 21:42:00,
2013-01-01 16:52:00,31.0,5.0,-100.00,NNW,345,5.0,16.0,32,-99.99,,,-99.99,,2013-01-01 21:52:00,
2013-01-01 17:03:00,31.0,0.0,-100.00,North,355,7.0,13.0,26,-99.99,,,-99.99,,2013-01-01 22:03:00,
2013-01-01 17:12:00,31.0,0.0,-100.00,North,355,7.0,13.0,26,-99.99,,,-99.99,,2013-01-01 22:12:00,
2013-01-01 17:23:00,31.0,0.0,-100.00,North,350,8.0,13.0,26,-99.99,,,-99.99,,2013-01-01 22:23:00,
2013-01-01 17:33:00,31.0,3.0,-100.00,NNW,335,6.0,16.0,30,-99.99,,,-99.99,,2013-01-01 22:33:00,
2013-01-01 17:43:00,31.0,2.0,-100.00,NNW,335,6.0,13.0,28,-99.99,,,-99.99,,2013-01-01 22:43:00,
2013-01-01 17:52:00,30.0,4.0,-100.00,WNW,285,3.0,10.0,32,-99.99,,,-99.99,,2013-01-01 22:52:00,
2013-01-01 18:03:00,30.0,5.0,-100.00,NW,325,3.0,10.0,35,-99.99,,,-99.99,,2013-01-01 23:03:00,
2013-01-01 18:13:00,30.0,2.0,-100.00,NNW,335,3.0,9.0,30,-99.99,,,-99.99,,2013-01-01 23:13:00,
2013-01-01 18:22:00,30.0,2.0,-100.00,NNW,335,5.0,14.0,29,-99.99,,,-99.99,,2013-01-01 23:22:00,
2013-01-01 18:32:00,29.0,4.0,-100.00,North,350,3.0,8.0,33,-99.99,,,-99.99,,2013-01-01 23:32:00,
2013-01-01 18:42:00,29.0,5.0,-100.00,NNW,340,3.0,8.0,34,-99.99,,,-99.99,,2013-01-01 23:42:00,
2013-01-01 18:52:00,29.0,4.0,-100.00,North,350,5.0,9.0,34,-99.99,,,-99.99,,2013-01-01 23:52:00,
2013-01-01 19:03:00,29.0,4.0,-100.00,NNW,345,6.0,12.0,33,-99.99,,,-99.99,,2013-01-02 00:03:00,
2013-01-01 19:12:00,29.0,1.0,-100.00,NNW,345,6.0,14.0,29,-99.99,,,-99.99,,2013-01-02 00:12:00,
2013-01-01 19:22:00,29.0,3.0,-100.00,NNW,335,5.0,14.0,33,-99.99,,,-99.99,,2013-01-02 00:22:00,
2013-01-01 19:43:00,29.0,-1.0,-100.00,North,355,7.0,15.0,27,-99.99,,,-99.99,,2013-01-02 00:43:00,
2013-01-01 19:52:00,28.0,3.0,-100.00,NNW,335,3.0,9.0,34,-99.99,,,-99.99,,2013-01-02 00:52:00,
2013-01-01 20:02:00,28.0,0.0,-100.00,NW,315,6.0,15.0,29,-99.99,,,-99.99,,2013-01-02 01:02:00,
2013-01-01 20:32:00,27.0,6.0,-100.00,North,350,5.0,10.0,41,-99.99,,,-99.99,,2013-01-02 01:32:00,
2013-01-01 22:22:00,24.0,7.0,-100.00,NW,320,1.0,6.0,47,-99.99,,,-99.99,,2013-01-02 03:22:00,
2013-01-01 22:32:00,24.0,7.0,-100.00,NNW,345,2.0,5.0,49,-99.99,,,-99.99,,2013-01-02 03:32:00,
2013-01-01 22:42:00,23.0,8.0,-100.00,WNW,300,2.0,5.0,51,-99.99,,,-99.99,,2013-01-02 03:42:00,
2013-01-01 22:52:00,23.0,8.0,-100.00,NW,320,2.0,7.0,53,-99.99,,,-99.99,,2013-01-02 03:52:00,
2013-01-01 23:03:00,23.0,9.0,-100.00,North,0,2.0,7.0,54,-99.99,,,-99.99,,2013-01-02 04:03:00,
2013-01-01 23:12:00,22.0,10.0,-100.00,NW,310,1.0,6.0,58,-99.99,,,-99.99,,2013-01-02 04:12:00,
2013-01-01 23:22:00,22.0,10.0,-100.00,WNW,285,1.0,6.0,59,-99.99,,,-99.99,,2013-01-02 04:22:00,
2013-01-01 23:32:00,22.0,10.0,-100.00,North,10,1.0,3.0,61,-99.99,,,-99.99,,2013-01-02 04:32:00,
2013-01-01 23:42:00,21.0,10.0,-100.00,North,0,1.0,3.0,60,-99.99,,,-99.99,,2013-01-02 04:42:00,
2013-01-01 23:52:00,22.0,10.0,-100.00,North,0,3.0,5.0,59,-99.99,,,-99.99,,2013-01-02 04:52:00,